DW2715 Weather Reports


Display with metric or nautical units.
time (UTC)temp
F
wind
direction
speed
MPH
gust
MPH
rain 1hr
in
rain 24hr
in
rain mn
in
humidity
%
barometer
mb
20260509201102 65 192 0.0 0.0 0.00 0.00 0.00 64 1015.4
20260509200602 65 190 0.0 0.0 0.00 0.00 0.00 64 1015.4
20260509195603 66 190 0.0 2.0 0.00 0.00 0.00 64 1015.3
20260509194603 66 190 0.0 0.0 0.00 0.00 0.00 64 1015.3
20260509194103 66 191 0.0 0.0 0.00 0.00 0.00 64 1015.2
20260509193602 67 190 0.0 0.0 0.00 0.00 0.00 64 1015.2
20260509193102 67 204 0.0 0.0 0.00 0.00 0.00 64 1015.1
20260509192603 67 197 0.0 0.0 0.00 0.00 0.00 64 1015.1
20260509192102 67 199 0.0 1.0 0.00 0.00 0.00 63 1015.1
20260509191603 68 199 0.0 1.0 0.00 0.00 0.00 62 1015.0
20260509190604 68 199 0.0 4.0 0.00 0.00 0.00 61 1014.8
20260509190103 68 161 0.0 0.0 0.00 0.00 0.00 61 1014.8
20260509185603 69 171 0.0 2.0 0.00 0.00 0.00 61 1014.8
20260509184602 69 152 0.0 3.0 0.00 0.00 0.00 60 1014.6
20260509184102 69 162 1.0 3.0 0.00 0.00 0.00 60 1014.6
20260509183103 70 148 1.0 7.0 0.00 0.00 0.00 59 1014.5
20260509182603 70 136 1.0 5.0 0.00 0.00 0.00 59 1014.4
20260509182103 70 140 1.0 4.0 0.00 0.00 0.00 59 1014.4
20260509180604 72 159 1.0 8.0 0.00 0.00 0.00 57 1014.3
20260509180103 72 119 1.0 7.0 0.00 0.00 0.00 57 1014.4
20260509175603 73 133 0.0 7.0 0.00 0.00 0.00 56 1014.4
20260509174603 74 142 0.0 1.0 0.00 0.00 0.00 55 1014.5
20260509173104 75 184 0.0 3.0 0.00 0.00 0.00 54 1014.4
20260509172602 75 194 0.0 4.0 0.00 0.00 0.00 53 1014.4
20260509172105 76 165 1.0 8.0 0.00 0.00 0.00 53 1014.5
20260509171603 76 119 1.0 8.0 0.00 0.00 0.00 52 1014.4
20260509171103 76 125 0.0 4.0 0.00 0.00 0.00 52 1014.4
20260509170601 76 163 1.0 10.0 0.00 0.00 0.00 52 1014.4
20260509165601 76 146 0.0 1.0 0.00 0.00 0.00 51 1014.3
20260509165101 76 155 0.0 0.0 0.00 0.00 0.00 51 1014.2
20260509164603 76 236 0.0 0.0 0.00 0.00 0.00 52 1014.3
20260509163101 77 88 1.0 8.0 0.00 0.00 0.00 50 1014.4
20260509162602 77 207 1.0 8.0 0.00 0.00 0.00 49 1014.4
20260509162101 78 188 2.0 9.0 0.00 0.00 0.00 49 1014.5
20260509161601 78 184 3.0 10.0 0.00 0.00 0.00 48 1014.5
20260509155600 80 190 1.0 7.0 0.00 0.00 0.00 45 1014.5
20260509155101 81 109 0.0 6.0 0.00 0.00 0.00 43 1014.5
20260509154601 81 196 1.0 8.0 0.00 0.00 0.00 39 1014.5
20260509153601 81 213 1.0 4.0 0.00 0.00 0.00 40 1014.4
20260509153101 81 132 1.0 6.0 0.00 0.00 0.00 42 1014.4
20260509152602 81 201 1.0 7.0 0.00 0.00 0.00 40 1014.5
20260509152101 81 184 1.0 11.0 0.00 0.00 0.00 41 1014.5
20260509151602 81 207 1.0 11.0 0.00 0.00 0.00 40 1014.5
20260509151101 81 148 1.0 8.0 0.00 0.00 0.00 40 1014.5
20260509150602 81 190 2.0 9.0 0.00 0.00 0.00 40 1014.6
20260509150100 81 172 1.0 9.0 0.00 0.00 0.00 41 1014.8
20260509145601 81 200 1.0 9.0 0.00 0.00 0.00 41 1014.8
20260509144600 81 205 2.0 12.0 0.00 0.00 0.00 40 1014.8
20260509144101 81 211 2.0 12.0 0.00 0.00 0.00 40 1014.9
20260509143602 81 150 1.0 9.0 0.00 0.00 0.00 41 1014.8
20260509143101 81 186 1.0 9.0 0.00 0.00 0.00 41 1014.9
20260509142601 81 202 1.0 7.0 0.00 0.00 0.00 40 1014.9
20260509142102 81 157 2.0 7.0 0.00 0.00 0.00 39 1014.9
20260509141557 81 178 1.0 7.0 0.00 0.00 0.00 39 1014.9
20260509140557 81 217 2.0 11.0 0.00 0.00 0.00 38 1015.0
20260509140057 81 283 1.0 10.0 0.00 0.00 0.00 40 1015.1
20260509135555 81 167 0.0 10.0 0.00 0.00 0.00 40 1015.1
20260509135055 81 193 2.0 12.0 0.00 0.00 0.00 41 1015.0
20260509134553 81 134 3.0 12.0 0.00 0.00 0.00 40 1015.2
20260509133553 81 198 2.0 11.0 0.00 0.00 0.00 42 1015.2
20260509132552 80 174 2.0 12.0 0.00 0.00 0.00 43 1015.3
20260509132052 79 190 1.0 9.0 0.00 0.00 0.00 43 1015.4
20260509131047 79 269 2.0 10.0 0.00 0.00 0.00 44 1015.4
20260509130548 79 208 2.0 10.0 0.00 0.00 0.00 42 1015.5
20260509125547 79 195 0.0 3.0 0.00 0.00 0.00 45 1015.5
20260509124541 79 153 0.0 6.0 0.00 0.00 0.00 44 1015.5
20260509124037 80 113 0.0 6.0 0.00 0.00 0.00 43 1015.5
20260509123536 80 211 1.0 7.0 0.00 0.00 0.00 45 1015.6
20260509122540 79 95 2.0 9.0 0.00 0.00 0.00 45 1015.6
20260509122037 79 102 1.0 7.0 0.00 0.00 0.00 46 1015.6
20260509121537 79 217 1.0 7.0 0.00 0.00 0.00 45 1015.7
20260509121037 79 158 1.0 5.0 0.00 0.00 0.00 47 1015.8
20260509120038 78 208 1.0 6.0 0.00 0.00 0.00 46 1015.8
20260509115032 77 136 0.0 7.0 0.00 0.00 0.00 48 1016.0
20260509114536 77 103 1.0 6.0 0.00 0.00 0.00 48 1016.0
20260509114033 76 161 1.0 6.0 0.00 0.00 0.00 49 1016.0
20260509113034 74 223 0.0 2.0 0.00 0.00 0.00 52 1016.1
20260509112533 74 294 1.0 7.0 0.00 0.00 0.00 50 1016.2
20260509112034 74 302 2.0 7.0 0.00 0.00 0.00 50 1016.2
20260509111533 74 231 1.0 7.0 0.00 0.00 0.00 52 1016.2
20260509111034 74 310 0.0 5.0 0.00 0.00 0.00 52 1016.3
20260509110533 74 292 1.0 5.0 0.00 0.00 0.00 50 1016.4
20260509110033 74 313 0.0 4.0 0.00 0.00 0.00 51 1016.5
20260509105532 75 290 0.0 0.0 0.00 0.00 0.00 50 1016.6
20260509104533 76 211 1.0 9.0 0.00 0.00 0.00 51 1016.7
20260509103532 75 142 0.0 5.0 0.00 0.00 0.00 53 1016.7
20260509103029 75 81 0.0 5.0 0.00 0.00 0.00 52 1016.8
20260509102530 74 201 0.0 5.0 0.00 0.00 0.00 53 1016.9
20260509102029 74 222 0.0 4.0 0.00 0.00 0.00 54 1016.9
20260509101029 74 217 0.0 4.0 0.00 0.00 0.00 55 1017.0
20260509100530 73 193 0.0 6.0 0.00 0.00 0.00 56 1017.0
20260509100029 73 200 1.0 6.0 0.00 0.00 0.00 57 1017.0
20260509095526 72 253 0.0 4.0 0.00 0.00 0.00 57 1017.0
20260509095021 72 250 0.0 3.0 0.00 0.00 0.00 58 1017.1
20260509094518 72 250 1.0 6.0 0.00 0.00 0.00 60 1017.1
20260509094019 72 221 2.0 7.0 0.00 0.00 0.00 59 1017.2
20260509093519 72 194 1.0 7.0 0.00 0.00 0.00 60 1017.2
20260509093019 71 181 0.0 7.0 0.00 0.00 0.00 62 1017.2
20260509092518 71 246 0.0 0.0 0.00 0.00 0.00 61 1017.3
20260509092016 71 209 0.0 0.0 0.00 0.00 0.00 61 1017.5
20260509091515 71 180 0.0 3.0 0.00 0.00 0.00 60 1017.5
20260509090515 71 198 1.0 4.0 0.00 0.00 0.00 62 1017.5
20260509090012 70 135 1.0 6.0 0.00 0.00 0.00 62 1017.5
20260509085512 70 260 1.0 6.0 0.00 0.00 0.00 63 1017.6
20260509085008 69 203 1.0 6.0 0.00 0.00 0.00 63 1017.6
20260509084506 69 232 1.0 6.0 0.00 0.00 0.00 63 1017.6
20260509083505 69 170 1.0 6.0 0.00 0.00 0.00 65 1017.5
20260509083005 69 209 1.0 5.0 0.00 0.00 0.00 65 1017.5
20260509082503 68 219 0.0 5.0 0.00 0.00 0.00 67 1017.6
20260509082002 68 292 0.0 4.0 0.00 0.00 0.00 67 1017.5
20260509081501 68 191 0.0 0.0 0.00 0.00 0.00 68 1017.6
20260509081000 67 193 0.0 0.0 0.00 0.00 0.00 69 1017.6
20260509075954 66 255 0.0 1.0 0.00 0.00 0.00 69 1017.6
20260509075454 66 256 0.0 1.0 0.00 0.00 0.00 69 1017.7
20260509074455 66 233 0.0 0.0 0.00 0.00 0.00 72 1017.7
20260509073957 65 309 0.0 0.0 0.00 0.00 0.00 72 1017.7
20260509072951 66 244 1.0 4.0 0.00 0.00 0.00 72 1017.7
20260509071946 65 198 0.0 3.0 0.00 0.00 0.00 74 1017.7
20260509071445 64 196 0.0 2.0 0.00 0.00 0.00 74 1017.7
20260509070942 64 355 0.0 0.0 0.00 0.00 0.00 74 1017.7
20260509070440 64 355 0.0 0.0 0.00 0.00 0.00 75 1017.6
20260509065938 64 355 0.0 0.0 0.00 0.00 0.00 76 1017.6
20260509065436 63 5 0.0 0.0 0.00 0.00 0.00 77 1017.6
20260509064432 62 5 0.0 0.0 0.00 0.00 0.00 79 1017.5
20260509063929 62 5 0.0 0.0 0.00 0.00 0.00 80 1017.5
20260509063429 61 5 0.0 0.0 0.00 0.00 0.00 81 1017.3
20260509062930 61 5 0.0 0.0 0.00 0.00 0.00 81 1017.3
20260509061931 60 256 0.0 0.0 0.00 0.00 0.00 83 1017.3
20260509060929 59 254 0.0 0.0 0.00 0.00 0.00 84 1017.5
20260509060426 59 252 0.0 0.0 0.00 0.00 0.00 85 1017.6
20260509055925 58 344 0.0 0.0 0.00 0.00 0.00 85 1017.5
20260509055422 58 344 0.0 0.0 0.00 0.00 0.00 86 1017.3
20260509054924 58 344 0.0 0.0 0.00 0.00 0.00 86 1017.3
20260509054419 57 344 0.0 0.0 0.00 0.00 0.00 86 1017.3
20260509053918 57 355 0.0 0.0 0.00 0.00 0.00 87 1017.3
20260509053418 57 355 0.0 0.0 0.00 0.00 0.00 87 1017.2
20260509052918 57 342 0.0 0.0 0.00 0.00 0.00 87 1017.2
20260509052415 57 338 0.0 0.0 0.00 0.00 0.00 88 1017.2
20260509051916 56 338 0.0 0.0 0.00 0.00 0.00 88 1017.2
20260509051416 56 307 0.0 0.0 0.00 0.00 0.00 88 1017.2
20260509050913 56 306 0.0 0.0 0.00 0.00 0.00 89 1017.2
20260509050412 56 307 0.0 0.0 0.00 0.00 0.00 89 1017.2
20260509045912 56 304 0.0 0.0 0.00 0.00 0.00 90 1017.1
20260509044908 55 214 0.0 0.0 0.00 0.00 0.00 90 1017.1
20260509043404 55 214 0.0 0.0 0.00 0.00 0.00 90 1017.0
20260509042904 55 214 0.0 0.0 0.00 0.00 0.00 90 1017.0
20260509042402 55 214 0.0 0.0 0.00 0.00 0.00 90 1017.0
20260509041902 55 214 0.0 0.0 0.00 0.00 0.00 89 1016.9
20260509041401 55 214 0.0 0.0 0.00 0.00 0.00 89 1016.9
20260509040902 55 214 0.0 0.0 0.00 0.00 0.00 89 1016.9
20260509040401 55 214 0.0 0.0 0.00 0.00 0.00 89 1016.8
20260509035903 54 214 0.0 0.0 0.00 0.00 0.00 89 1016.8
20260509035401 54 214 0.0 0.0 0.00 0.00 0.00 89 1016.8
20260509034905 54 214 0.0 0.0 0.00 0.00 0.00 89 1016.9
20260509034403 55 214 0.0 0.0 0.00 0.00 0.00 89 1016.8
20260509033901 55 214 0.0 0.0 0.00 0.00 0.00 89 1016.9
20260509033401 55 214 0.0 0.0 0.00 0.00 0.00 88 1016.9
20260509032902 55 214 0.0 0.0 0.00 0.00 0.00 89 1016.9
20260509032402 55 214 0.0 0.0 0.00 0.00 0.00 89 1016.9
20260509031902 55 214 0.0 0.0 0.00 0.00 0.00 89 1016.9
20260509030901 55 214 0.0 0.0 0.00 0.00 0.00 88 1016.9
20260509025902 55 214 0.0 0.0 0.00 0.00 0.00 88 1016.8
20260509025400 55 214 0.0 0.0 0.00 0.00 0.00 88 1016.7
20260509024901 55 214 0.0 0.0 0.00 0.00 0.00 88 1016.7
20260509023902 55 214 0.0 0.0 0.00 0.00 0.00 88 1016.8
20260509023403 55 214 0.0 0.0 0.00 0.00 0.00 88 1016.8
20260509022902 55 214 0.0 0.0 0.00 0.00 0.00 88 1016.9
20260509022401 56 214 0.0 0.0 0.00 0.00 0.00 87 1016.9
20260509021902 56 214 0.0 0.0 0.00 0.00 0.00 87 1017.0
20260509021401 56 214 0.0 0.0 0.00 0.00 0.00 87 1016.9
20260509020901 56 214 0.0 0.0 0.00 0.00 0.00 87 1016.9
20260509020359 56 214 0.0 0.0 0.00 0.00 0.00 87 1016.9
20260509015853 56 214 0.0 0.0 0.00 0.00 0.00 87 1016.8
20260509015354 56 214 0.0 0.0 0.00 0.00 0.00 87 1016.8
20260509014854 56 214 0.0 0.0 0.00 0.00 0.00 87 1016.7
20260509014353 56 214 0.0 0.0 0.00 0.00 0.00 87 1016.7
20260509013851 56 214 0.0 0.0 0.00 0.00 0.00 87 1016.7
20260509013350 56 214 0.0 0.0 0.00 0.00 0.00 86 1016.7
20260509012849 56 214 0.0 0.0 0.00 0.00 0.00 86 1016.7
20260509012349 56 214 0.0 0.0 0.00 0.00 0.00 86 1016.6
20260509011847 56 214 0.0 0.0 0.00 0.00 0.00 86 1016.6
20260509011348 56 214 0.0 0.0 0.00 0.00 0.00 86 1016.6
20260509010849 56 214 0.0 0.0 0.00 0.00 0.00 86 1016.6
20260509010345 56 214 0.0 0.0 0.00 0.00 0.00 86 1016.6
20260509005844 56 214 0.0 0.0 0.00 0.00 0.00 86 1016.6
20260509005343 57 214 0.0 0.0 0.00 0.00 0.00 85 1016.7
20260509004843 57 214 0.0 0.0 0.00 0.00 0.00 85 1016.6
20260509004344 57 214 0.0 0.0 0.00 0.00 0.00 85 1016.6
20260509003843 57 214 0.0 0.0 0.00 0.00 0.00 85 1016.6
20260509003344 57 214 0.0 0.0 0.00 0.00 0.00 85 1016.5
20260509002842 57 214 0.0 0.0 0.00 0.00 0.00 85 1016.5
20260509002337 57 214 0.0 0.0 0.00 0.00 0.00 85 1016.5
20260509001838 57 214 0.0 0.0 0.00 0.00 0.00 85 1016.4
20260509000837 58 214 0.0 0.0 0.00 0.00 0.00 85 1016.4
20260509000335 58 214 0.0 0.0 0.00 0.00 0.00 85 1016.5
20260508235835 58 214 0.0 0.0 0.00 0.00 0.00 85 1016.5
20260508235335 58 214 0.0 0.0 0.00 0.00 0.00 84 1016.5
20260508234330 58 214 0.0 0.0 0.00 0.00 0.00 84 1016.5
20260508233829 58 214 0.0 0.0 0.00 0.00 0.00 84 1016.5
20260508233330 58 214 0.0 0.0 0.00 0.00 0.00 84 1016.5
20260508232829 58 214 0.0 0.0 0.00 0.00 0.00 83 1016.6
20260508231829 58 214 0.0 0.0 0.00 0.00 0.00 83 1016.6
20260508231330 58 214 0.0 0.0 0.00 0.00 0.00 83 1016.6
20260508230829 59 214 0.0 0.0 0.00 0.00 0.00 83 1016.6
20260508230329 59 214 0.0 0.0 0.00 0.00 0.00 82 1016.6
20260508225829 59 214 0.0 0.0 0.00 0.00 0.00 82 1016.6
20260508225328 59 214 0.0 0.0 0.00 0.00 0.00 82 1016.6
20260508224329 59 214 0.0 0.0 0.00 0.00 0.00 81 1016.6
20260508223830 60 214 0.0 0.0 0.00 0.00 0.00 82 1016.7
20260508223329 60 214 0.0 0.0 0.00 0.00 0.00 81 1016.7
20260508222328 60 214 0.0 0.0 0.00 0.00 0.00 81 1016.7
20260508221830 60 214 0.0 0.0 0.00 0.00 0.00 81 1016.7
20260508221329 60 214 0.0 0.0 0.00 0.00 0.00 80 1016.6
20260508220830 60 214 0.0 0.0 0.00 0.00 0.00 80 1016.6
20260508220329 60 214 0.0 0.0 0.00 0.00 0.00 80 1016.6
20260508215828 60 214 0.0 0.0 0.00 0.00 0.00 80 1016.6
20260508215329 60 214 0.0 0.0 0.00 0.00 0.00 80 1016.6
20260508214828 61 214 0.0 0.0 0.00 0.00 0.00 79 1016.5
20260508213329 61 214 0.0 0.0 0.00 0.00 0.00 79 1016.5
20260508212828 61 214 0.0 0.0 0.00 0.00 0.00 79 1016.5
20260508212321 61 214 0.0 0.0 0.00 0.00 0.00 79 1016.5
20260508211816 61 214 0.0 0.0 0.00 0.00 0.00 78 1016.4
20260508211309 61 214 0.0 0.0 0.00 0.00 0.00 78 1016.4
20260508210810 62 214 0.0 0.0 0.00 0.00 0.00 78 1016.4
20260508210309 62 214 0.0 1.0 0.00 0.00 0.00 78 1016.5
20260508205807 62 213 0.0 2.0 0.00 0.00 0.00 77 1016.4
20260508205306 62 213 0.0 2.0 0.00 0.00 0.00 77 1016.4
20260508204802 62 217 0.0 2.0 0.00 0.00 0.00 77 1016.5
20260508204302 62 218 0.0 2.0 0.00 0.00 0.00 76 1016.5
20260508203802 62 218 0.0 2.0 0.00 0.00 0.00 76 1016.5
20260508203302 62 218 0.0 1.0 0.00 0.00 0.00 75 1016.4
20260508202801 63 218 0.0 0.0 0.00 0.00 0.00 75 1016.4
20260508201802 63 209 0.0 4.0 0.00 0.00 0.00 74 1016.3
20260508201301 63 209 0.0 4.0 0.00 0.00 0.00 73 1016.3